Showing default

COSMOS 220, 3229

Orbit data source: Space-Track

COSMOS 220, 3229 is a payload satellite owned by OKB-10 (CIS) in LEO that was launched on Tue, 07 May 1968 UTC via a KOSMOS 11K65M launch vehicle from the Plesetsk Missile And Space Complex (PKMTR). Payload-class satellites include a variety of spacecraft equipped with specific instruments for various scientific and technological missions. These include communications satellites like Starlink; space stations such as the ISS; scientific satellites like the Hubble; Earth observation satellites from companies like Planet Labs, Umbra, and HawkEye 360; GPS; miniature CubeSats for education and research; and military/defense satellites.

Loading next visibility...
Identifier
3229, 1968-040A
Orbit
LEO
Country
Flag of CISCIS
Related business
Manufacturer
OKB-10
Mission
Spacecraft
Bus & Motor
KAUR-1 11F617, Unknown motor
Mass
775 kg wet, 775 kg dry
Launch date (UTC)
1968-05-07 (57 years ago)
Launch vehicle
KOSMOS 11K65M
Launch site
Plesetsk Missile And Space Complex (PKMTR)
Object type
Payload
Rocket body
Debris
Shape & HBR
Unknown
Radar Cross Section
Large (>1 m²)

Expand to show TLE details & history
Last TLE update: 17 hours ago

TLE from 17 hours ago
0 COSMOS 220
1 03229U 68040A   25308.35143752  .00001135  00000-0  15196-3 0  9997
2 03229  74.0244 264.6809 0035337 227.7004 132.1177 14.80359488 57113
Epoch: 2025-11-04T08:26Z
TLE epoch observation values (Epoch: 2025-11-04T08:26:04.201Z)
Latitude
0.00001°
Longitude
94.32369°
Altitude
647.509 km
Speed
7.525 km/s
True Right ascension
17h 38m 43s
True Declination
0° 00' 00"
Sunlit
Object was in daylight at epoch
Visualization orbit readout
Latitude
Unknown
Longitude
Unknown
Altitude
Unknown
Speed
Unknown
Apparent Right ascension
Unknown
Apparent Declination
Unknown
Sunlit
N/A
Visualization observer readout
Local Sidereal Time
20:57:21
Azimuth
Unknown
Elevation
Unknown
Doppler factor
Unknown
Orbital elements
Apogee altitude
650.515 km
Perigee altitude
601.016 km
Semi-major axis
7,003.903 km
Eccentricity
0.00353
Inclination
74.0244°
RAAN
264.6809°
Arg. of periapsis
227.7004°
True anomaly
132.41718°
Mean anomaly
132.1177°
Eccentric anomaly
132.26753°
Mean motion
3.70282 °/min
Orbital period
97.22 mins
BSTAR
0.00015196
Loading maneuver chart data...
Computing Atmospheric mass density...
Loading historical data...
Loading historical data...
Loading historical data...
Loading historical data...
Loading historical data...
Loading historical data...
Loading historical data...
Other satellites on launch #40 in the year 1968 (1968-05-07 UTC)

Documentation

Showing up to 5 results
|